Theta_e
287 288 289 289 290 290 290 290 290 291 292 292 292 292 291 291 292 291 290 289 288 288 288 287 286 287 286 286 286 286 285 287 290 285 285 281 278 278 278 279 279 278 278
286 287 287 287 288 287 287 287 288 288 288 289 289 288 288 288 288 287 285 285 285 284 284 283 282 283 282 282 282 281 281 282 283 281 279 278 276 276 277 277 278 279 278
283 285 285 285 285 285 285 285 286 286 286 286 286 285 285 284 284 284 283 282 281 281 280 280 280 280 279 279 279 279 280 280 280 280 277 277 277 276 276 277 277 277 278
283 283 282 283 283 283 283 283 283 284 284 284 284 284 283 283 282 282 281 280 280 280 281 281 280 279 279 278 278 278 279 278 278 277 276 276 275 276 275 274 274 276 275
281 281 281 282 282 282 281 281 281 281 282 283 283 283 283 282 282 281 280 280 279 278 279 279 279 280 283 282 279 278 278 277 277 276 274 274 274 274 273 275 274 274 274
279 279 280 280 280 280 280 280 280 280 280 280 280 281 281 283 285 284 281 280 279 279 277 278 278 278 280 282 283 283 280 276 275 275 274 273 273 274 274 274 273 271 269
277 277 277 278 277 277 278 278 278 278 278 278 279 279 279 281 284 283 282 279 279 278 278 278 278 278 277 277 279 279 280 280 279 275 273 273 273 274 274 273 272 271 270
276 276 276 276 276 276 276 276 276 277 277 277 278 278 279 280 282 282 281 278 278 277 277 278 278 278 278 277 276 276 276 277 277 276 275 275 275 276 274 273 271 269 268
274 274 275 275 275 275 275 274 275 276 276 276 277 277 277 279 282 281 279 277 277 276 277 277 277 278 281 279 276 274 274 275 278 278 277 277 276 277 276 271 262 260 259
274 274 274 275 275 274 274 274 275 275 276 276 276 275 275 277 281 281 279 278 276 276 276 276 279 277 280 279 275 274 272 273 273 271 271 272 272 273 274 272 269 260 261
274 274 274 274 274 274 274 274 275 275 274 274 273 274 274 274 278 280 279 278 277 275 274 274 275 279 279 279 278 274 275 272 270 268 267 267 269 269 270 270 269 267 262
272 272 272 273 274 274 274 273 273 273 272 271 271 270 271 272 277 279 280 278 277 275 273 273 274 278 278 277 275 276 275 271 262 261 261 263 265 266 267 266 266 265 266
271 270 269 270 273 273 272 271 270 271 270 269 270 268 268 271 271 277 277 277 277 273 274 275 276 276 275 272 274 273 267 263 261 259 261 264 265 265 263 260 260 259 260
268 267 267 268 268 268 270 270 269 268 267 269 268 266 266 267 268 269 272 271 273 273 273 270 273 274 273 271 267 267 266 265 263 262 261 262 260 257 256 258 257 258 255
267 266 267 266 266 266 267 266 269 268 270 267 266 267 264 263 268 272 272 268 267 271 263 262 263 264 263 262 261 261 262 261 260 259 257 256 258 259 258 257 256 253 253
265 265 264 265 263 264 264 264 271 273 274 275 275 270 269 272 274 275 276 277 277 277 261 259 261 262 262 262 260 260 260 259 260 259 256 256 258 258 258 256 256 252 252
266 265 264 265 264 263 262 262 261 265 274 275 276 276 276 273 274 275 276 277 278 276 261 259 260 260 261 261 260 258 258 259 257 255 255 256 257 256 253 255 255 253 254
261 263 263 263 263 261 261 261 260 259 260 261 268 273 275 276 276 277 277 275 262 261 254 256 257 258 258 258 257 256 256 255 255 256 255 255 253 251 250 252 253 249 253
261 261 261 261 261 261 261 259 258 257 256 255 255 264 264 272 275 276 277 262 259 256 253 252 254 255 256 256 257 256 255 255 255 253 251 252 252 248 251 253 252 253 251
259 261 261 260 258 258 258 259 257 256 256 255 254 255 254 256 255 255 254 252 252 253 253 254 256 255 256 255 255 255 254 253 253 253 255 254 254 251 253 253 251 251 250
260 258 259 257 258 258 258 258 258 257 257 256 257 255 264 255 255 254 253 253 255 256 257 257 258 257 256 256 255 254 254 257 256 256 256 256 254 251 252 253 253 250 250
259 258 257 258 258 258 258 258 257 257 257 256 256 253 267 258 256 257 257 257 258 258 259 259 259 259 260 258 258 257 258 258 258 257 257 256 254 253 252 251 251 250 249
258 257 256 254 256 256 255 255 255 255 255 255 255 255 252 254 255 256 257 259 257 258 258 257 259 260 260 260 260 260 259 260 261 261 259 258 256 256 253 253 253 250 248
257 256 257 257 256 255 256 256 255 255 255 255 254 255 255 255 256 257 258 258 258 259 259 259 259 260 261 261 261 261 260 261 261 261 259 258 257 257 256 255 255 253 252
256 256 256 257 256 256 256 256 255 255 254 255 255 254 255 255 256 257 259 259 260 261 261 262 261 262 261 261 262 262 261 263 262 260 258 255 255 256 256 256 255 253 253
256 256 256 255 254 254 254 255 255 255 255 255 255 256 257 257 259 259 260 260 261 261 262 262 263 263 263 263 263 263 262 264 262 260 259 255 254 254 254 254 254 255 254
Wind_Speed
8 8 8 8 8 8 8 8 8 8 7 8 8 8 9 10 8 9 9 9 12 10 9 10 10 8 6 5 5 5 5 3 3 3 4 4 5 4 5 4 4 4 4
6 7 8 8 8 8 9 8 8 9 9 8 8 8 9 10 10 10 10 9 11 9 9 9 8 7 8 6 6 7 5 4 2 4 2 3 4 4 4 4 5 5 4
6 7 7 8 8 9 9 9 9 10 8 10 9 11 10 11 11 10 11 10 12 9 8 8 8 8 8 6 6 5 4 5 5 3 3 3 3 4 3 3 4 4 4
6 7 8 8 8 8 8 9 10 10 10 10 10 11 10 10 9 9 10 10 10 9 10 10 9 8 8 6 7 6 5 6 5 4 3 3 3 2 2 5 5 4 4
7 8 8 7 8 9 9 10 10 10 9 9 10 10 9 8 6 8 8 10 10 10 9 9 10 9 16 13 6 6 6 5 4 4 3 2 3 3 5 4 4 6 2
7 7 7 8 9 9 9 9 10 10 9 9 9 9 8 7 15 15 10 8 8 9 9 8 8 9 12 16 17 18 12 5 6 2 2 3 4 3 3 4 4 4 5
6 6 6 7 8 7 7 8 8 8 8 9 8 8 8 7 14 14 14 7 8 7 7 7 7 6 7 7 12 13 12 14 11 4 4 4 3 4 4 5 5 4 4
6 6 5 6 7 6 7 7 6 6 7 5 6 6 6 8 14 14 13 8 8 8 7 7 6 5 7 6 5 5 5 5 6 5 3 3 2 3 3 3 4 5 7
5 4 4 5 5 5 6 5 5 5 6 6 6 6 6 6 11 11 8 6 7 7 6 5 6 5 9 9 5 4 3 3 5 8 7 7 7 7 5 2 3 3 3
4 4 3 4 4 5 5 4 3 4 5 5 6 5 6 5 9 9 7 4 5 4 3 5 7 5 6 7 4 3 3 2 3 4 4 5 5 4 5 4 3 1 2
4 4 4 3 4 4 4 3 3 4 5 5 5 5 5 5 5 8 8 4 4 3 3 2 2 6 5 5 8 3 2 3 4 2 2 2 2 2 2 2 4 3 2
4 4 4 3 2 2 4 3 3 4 5 4 4 3 3 4 5 5 8 7 6 4 2 1 1 5 6 7 5 6 5 4 2 2 2 2 2 1 2 2 5 4 4
5 4 2 3 3 3 3 2 2 3 3 2 2 2 1 2 3 6 5 4 4 3 1 3 3 3 3 3 6 6 5 2 1 2 1 2 2 2 4 4 3 5 7
5 4 2 2 2 2 2 2 3 2 3 3 2 2 1 1 0 1 0 1 2 2 3 2 3 0 3 2 3 3 2 1 0 2 2 2 2 2 2 2 2 3 3
5 5 4 1 2 2 2 2 1 2 3 3 3 3 3 2 3 6 5 3 1 3 2 2 2 3 2 2 2 2 2 1 1 1 1 2 2 2 2 1 2 3 1
4 3 3 3 2 2 2 1 2 4 5 5 5 5 1 6 7 8 7 5 5 4 3 1 1 1 3 2 3 2 2 2 2 1 1 2 3 3 4 2 1 1 3
6 5 3 4 3 3 2 2 1 4 5 7 8 9 11 8 8 8 7 8 9 5 2 2 3 3 3 3 3 3 2 2 0 1 2 3 4 4 2 4 3 2 5
5 5 4 4 3 2 2 2 2 3 3 3 4 6 9 10 9 9 9 5 1 2 3 4 4 3 3 3 2 3 3 2 2 3 4 4 4 3 2 4 3 3 5
5 3 3 3 3 4 3 2 2 2 3 3 3 4 3 7 9 11 13 2 4 3 3 3 3 3 3 3 4 4 4 4 3 3 4 4 4 3 5 6 5 6 5
4 6 5 4 2 2 2 3 3 3 3 3 3 3 3 2 1 2 2 1 2 3 3 4 4 4 5 4 4 4 4 4 5 5 6 5 5 5 6 6 5 5 4
4 3 5 3 4 4 4 5 4 4 4 4 5 4 9 4 4 4 4 4 5 5 5 5 5 5 5 5 5 4 5 7 5 6 6 6 4 5 6 6 6 5 5
4 4 4 5 4 4 4 4 4 4 4 4 4 3 12 2 4 5 5 5 6 6 5 6 6 6 6 6 6 6 7 8 7 6 7 6 5 6 5 5 5 4 4
5 5 4 2 3 4 4 4 4 4 5 5 5 5 4 5 5 5 6 6 5 6 5 6 7 7 6 6 7 7 8 9 8 6 7 6 6 6 5 6 6 4 4
5 5 6 5 5 5 5 5 5 6 6 6 5 6 6 5 6 7 7 6 6 7 6 6 7 10 8 7 7 7 8 8 7 8 9 8 7 7 6 6 6 6 5
5 6 6 6 6 6 6 6 6 5 6 6 6 5 6 6 6 7 7 7 7 7 8 7 7 9 12 14 12 12 10 14 12 10 6 7 8 9 7 6 6 4 5
6 6 6 4 5 5 6 6 7 6 7 7 7 7 7 6 7 7 7 7 7 7 8 7 9 12 13 11 12 13 12 13 11 11 7 6 6 7 6 7 7 6 7
Wind_Direction
31 37 48 45 43 56 52 46 59 65 65 63 67 68 77 70 56 79 77 75 77 58 52 63 64 63 54 38 40 51 37 16 84 79 62 41 43 26 16 11 16 18 351
34 45 49 52 50 57 58 52 55 59 50 61 65 70 67 66 72 71 70 67 73 70 77 67 63 64 60 47 51 49 41 18 87 107 69 38 52 357 5 13 6 9 340
40 55 55 52 53 54 55 53 54 59 55 57 61 63 61 64 66 64 74 75 74 68 67 75 67 64 58 46 47 52 42 43 36 79 93 34 50 30 339 344 346 345 341
57 60 58 55 58 58 57 55 57 57 60 58 60 65 63 64 74 77 81 84 81 77 68 63 64 65 67 59 54 45 46 56 51 65 69 50 28 4 11 348 341 342 334
60 64 61 59 62 62 59 57 59 58 58 60 66 63 64 69 70 77 79 76 77 71 64 63 54 52 72 72 67 49 52 56 54 58 53 49 29 6 7 337 318 323 315
69 68 68 70 67 63 63 63 63 60 56 62 62 64 68 75 84 86 84 87 84 81 77 67 61 48 58 69 66 63 66 61 57 54 45 35 20 7 344 347 341 354 338
81 62 64 72 73 64 62 66 65 66 68 64 62 70 69 74 84 85 83 78 83 80 82 83 75 66 59 57 65 65 54 63 69 60 69 43 355 351 343 346 352 324 290
74 74 67 77 83 80 79 76 68 62 63 66 60 57 75 82 87 88 87 81 81 75 73 73 77 79 72 65 73 74 68 70 70 59 51 22 15 347 39 14 331 321 295
80 90 92 96 100 101 99 100 94 87 76 72 61 53 58 65 80 85 84 78 83 77 69 56 58 49 66 69 68 62 54 54 59 44 36 24 11 360 22 27 344 25 306
99 82 76 96 104 106 107 105 104 111 107 98 89 60 50 54 81 87 92 99 98 96 78 59 55 47 43 90 69 33 26 17 50 17 18 14 13 358 14 23 350 295 279
132 119 104 97 102 108 104 78 76 84 83 78 87 66 60 36 61 81 88 90 109 103 84 50 23 35 17 47 45 346 23 59 16 34 13 338 342 345 346 350 321 287 219
137 125 117 97 101 114 120 102 107 109 107 97 91 64 39 34 48 64 92 95 95 108 105 90 329 3 5 13 8 346 22 49 55 32 17 323 301 292 315 299 290 276 262
140 146 137 126 118 121 111 124 97 106 110 127 131 132 122 28 19 53 63 64 85 100 164 276 4 8 19 12 346 360 37 46 38 22 327 278 285 325 308 317 306 296 280
150 137 126 113 109 74 99 121 120 137 142 151 159 174 178 92 287 341 321 356 3 36 15 337 303 44 20 41 5 9 351 21 207 226 246 277 304 336 307 278 295 319 319
153 149 145 146 134 101 77 169 165 205 179 168 179 169 175 229 232 209 214 235 232 250 112 28 22 20 354 345 327 305 273 272 227 224 255 292 298 315 295 329 300 332 285
141 156 166 156 152 160 163 250 261 218 227 225 213 190 227 233 236 227 245 277 285 214 55 86 301 244 248 247 248 269 262 256 245 218 307 304 295 298 299 296 247 241 281
171 170 166 176 182 167 174 166 223 336 320 251 231 227 223 220 244 244 254 266 271 288 112 225 232 226 244 248 239 216 255 247 232 239 229 250 265 263 277 295 292 274 295
172 172 171 179 179 166 170 181 159 180 233 274 300 278 262 254 244 249 260 273 40 22 184 217 235 232 239 245 241 231 251 256 250 247 244 241 247 243 276 265 259 248 278
174 180 172 175 182 186 179 165 178 190 219 237 315 280 328 289 266 260 255 168 204 234 233 246 226 233 242 237 246 242 234 241 235 248 243 230 231 202 251 253 256 255 255
184 180 179 177 148 148 163 184 199 210 225 232 248 250 326 36 317 259 278 235 231 240 239 247 254 237 243 242 251 246 260 242 242 235 250 239 236 208 239 246 234 254 244
178 162 152 142 179 190 184 200 199 198 219 224 239 211 228 201 229 219 230 232 232 237 243 236 245 242 231 235 235 239 236 260 237 240 243 245 224 237 222 232 240 232 248
164 172 173 191 179 193 205 203 204 209 219 230 250 253 259 251 219 227 229 235 232 229 230 238 249 237 237 227 227 230 243 253 253 238 243 240 231 238 225 232 234 228 232
171 175 181 172 183 183 200 203 208 213 225 229 233 242 228 241 243 244 246 246 233 239 227 223 244 257 241 234 227 230 240 249 249 242 246 245 242 247 222 240 235 222 220
168 175 187 199 190 205 211 216 217 219 225 234 232 237 238 234 238 242 245 247 241 246 235 227 232 245 259 249 235 231 235 245 245 246 239 250 251 254 242 236 234 226 235
175 183 192 196 199 210 216 225 226 229 231 233 242 236 237 237 244 245 245 241 244 245 247 237 237 243 244 249 249 245 236 246 243 233 226 219 236 246 248 247 243 216 226
187 193 202 189 203 204 211 219 225 224 230 236 234 238 240 242 245 248 247 242 245 248 249 246 244 241 247 252 253 254 251 251 248 242 222 211 223 236 237 239 236 238 238